EW9766 Weather Reports


time (UTC)temp
C
wind
direction
speed
KPH
gust
KPH
rain 1hr
cm
rain 24hr
cm
rain mn
cm
humidity
%
barometer
mb
20260510120034 8 140 8.0 14.5 0.00 6.50 0.00 67 1017.6
20260510114535 9 122 4.8 12.9 0.00 6.50 0.00 66 1017.8
20260510113030 9 156 9.7 16.1 0.00 6.50 0.00 66 1017.5
20260510111531 9 155 9.7 16.1 0.00 6.50 0.00 66 1017.5
20260510110105 9 151 9.7 17.7 0.00 6.50 0.00 66 1017.4
20260510103106 9 142 8.0 12.9 0.00 6.50 0.00 65 1017.8
20260510101533 9 148 8.0 14.5 0.00 6.50 0.00 64 1017.6
20260510100030 10 152 8.0 14.5 0.00 6.50 0.00 63 1017.5
20260510094531 10 161 8.0 14.5 0.00 6.50 0.00 62 1017.6
20260510093030 11 156 9.7 17.7 0.00 6.50 0.00 62 1017.6
20260510091530 11 154 9.7 17.7 0.00 6.50 0.00 62 1017.8
20260510090035 11 150 11.3 19.3 0.00 6.50 0.00 62 1017.9
20260510084535 11 156 11.3 20.9 0.00 6.50 0.00 62 1018.1
20260510083032 11 156 9.7 16.1 0.00 6.50 0.00 63 1018.2
20260510081530 11 151 9.7 16.1 0.00 6.50 0.00 64 1018.4
20260510080033 11 154 9.7 16.1 0.00 6.50 0.00 64 1018.5
20260510074532 11 152 8.0 19.3 0.00 6.50 0.00 64 1018.5
20260510073030 11 164 8.0 14.5 6.50 6.50 0.00 64 1018.5
20260510071607 11 161 8.0 12.9 6.50 6.50 0.00 64 1018.5
20260510070034 11 147 9.7 14.5 6.50 6.50 0.00 64 1018.4
20260510064533 18 139 1052.5 0.0 6.50 6.50 0.00 66 1013.9
20260510061530 12 143 8.0 12.9 0.00 0.00 0.00 64 1018.4
20260510060037 12 148 9.7 12.9 0.00 0.00 0.00 64 1018.3
20260510054534 11 149 9.7 14.5 0.00 0.00 0.00 65 1018.3
20260510053037 12 152 8.0 12.9 0.00 0.00 0.00 64 1018.3
20260510051535 12 181 8.0 12.9 0.00 0.00 0.00 64 1018.2
20260510050107 12 167 6.4 12.9 0.00 0.00 0.00 65 1018.1
20260510044535 12 162 6.4 11.3 0.00 0.00 0.00 65 1017.9
20260510043033 12 162 6.4 9.7 0.00 0.00 0.00 65 1018.0
20260510041533 12 155 6.4 8.0 0.00 0.00 0.00 64 1017.9
20260510040106 13 156 6.4 9.7 0.00 0.00 0.00 62 1017.8
20260510033030 16 169 4.8 8.0 0.00 0.00 0.00 60 1017.6
20260510031531 16 154 4.8 6.4 0.00 0.00 0.00 59 1017.6
20260510030106 17 180 0.0 4.8 0.00 0.00 0.00 57 1017.6
20260510024535 18 197 1.6 3.2 0.00 0.00 0.00 53 1017.7
20260510023031 18 225 0.0 3.2 0.00 0.00 0.00 50 1017.8
20260510021532 19 260 0.0 3.2 0.00 0.00 0.00 47 1017.6
20260510020034 20 270 0.0 1.6 0.00 0.00 0.00 42 1017.7
20260510014535 21 270 1.6 4.8 0.00 0.00 0.00 40 1017.9
20260510013034 21 275 3.2 8.0 0.00 0.00 0.00 41 1018.2
20260510010033 22 274 3.2 11.3 0.00 0.00 0.00 40 1018.2
20260510004530 22 293 4.8 12.9 0.00 0.00 0.00 40 1018.2
20260510001534 22 316 4.8 11.3 0.00 0.00 0.00 42 1018.3
20260509234643 23 300 6.4 16.1 0.00 0.00 0.00 41 1018.5
20260509233031 23 307 4.8 16.1 0.00 0.00 0.00 42 1018.6
20260509231531 22 300 4.8 12.9 0.00 0.00 0.00 42 1018.9
20260509230030 22 328 6.4 16.1 0.00 0.00 0.00 42 1019.0
20260509224531 22 338 4.8 11.3 0.00 0.00 0.00 42 1019.3
20260509223034 22 299 6.4 12.9 0.00 0.00 0.00 43 1019.6
20260509221607 22 297 6.4 17.7 0.00 0.00 0.00 45 1019.8
20260509220037 22 314 6.4 16.1 0.00 0.00 0.00 46 1019.9
20260509214528 22 310 6.4 14.5 0.00 0.00 0.00 47 1020.0
20260509213029 21 302 6.4 20.9 0.00 0.00 0.00 49 1020.2
20260509211532 21 325 6.4 14.5 0.00 0.00 0.00 49 1020.3
20260509210032 21 319 4.8 12.9 0.00 0.00 0.00 49 1020.5
20260509203030 21 299 6.4 16.1 0.00 0.00 0.00 51 1020.7
20260509201530 21 327 6.4 16.1 0.00 0.00 0.00 51 1020.9
20260509200031 20 318 6.4 14.5 0.00 0.00 0.00 51 1021.1
20260509194533 20 321 6.4 12.9 0.00 0.00 0.00 50 1021.2
20260509193031 20 298 4.8 17.7 0.00 0.00 0.00 50 1021.3
20260509191534 19 330 4.8 12.9 0.00 0.00 0.00 50 1021.4
20260509190107 19 326 6.4 16.1 0.00 0.00 0.00 51 1021.6
20260509184610 18 304 4.8 11.3 0.00 0.00 0.00 52 1021.8
20260509183029 18 348 6.4 14.5 0.00 0.00 0.00 51 1021.9
20260509181652 17 334 6.4 12.9 0.00 0.00 0.00 50 1022.0
20260509174530 17 299 4.8 12.9 0.00 0.00 0.00 51 1021.9
20260509171531 16 345 6.4 12.9 0.00 0.00 0.00 50 1022.1
20260509170106 16 316 6.4 12.9 0.00 0.00 0.00 49 1022.2
20260509164607 15 341 6.4 11.3 0.00 0.00 0.00 49 1022.2
20260509163031 16 339 6.4 11.3 0.00 0.00 0.00 49 1022.2
20260509161533 15 336 4.8 8.0 0.00 0.00 0.00 50 1022.2
20260509160035 14 350 1.6 6.4 0.00 0.00 0.00 52 1022.3
20260509154529 13 40 4.8 9.7 0.00 0.00 0.00 52 1022.5
20260509153032 14 26 6.4 9.7 0.00 0.00 0.00 52 1022.5
20260509151535 13 49 0.0 6.4 0.00 0.00 0.00 53 1022.4
20260509150035 13 101 3.2 6.4 0.00 0.00 0.00 56 1022.3
20260509144528 12 139 4.8 8.0 0.00 0.00 0.00 60 1022.4
20260509143107 11 156 6.4 11.3 0.00 0.00 0.00 62 1022.4
20260509141652 10 145 6.4 11.3 0.00 0.00 0.00 66 1022.3
20260509140035 8 154 8.0 12.9 0.00 0.00 0.00 70 1022.3
20260509134528 6 149 8.0 14.5 0.00 0.00 0.00 72 1022.3
20260509133029 6 138 9.7 12.9 0.00 0.00 0.00 72 1022.2
20260509131535 6 154 9.7 16.1 0.00 0.00 0.00 73 1022.2
20260509130107 6 151 8.0 16.1 0.00 0.00 0.00 73 1021.9
20260509124530 6 159 9.7 16.1 0.00 0.00 0.00 73 1021.8
20260509123033 6 144 9.7 14.5 0.00 0.00 0.00 73 1021.8
20260509121532 7 159 8.0 14.5 0.00 0.00 0.00 73 1021.9